Overview Statistics Trail Chart Weather Telemetry Raw packets
 

This is the latest recevied weather packets stored in our database for station/object DC9VQ-13. If no packets are shown the sender has not sent any weather packets the latest 10 day(s).

<< 19 20 21 22 23 24 25 >>
Time Temp. Humidity Pressure Rain* Wind** Luminosity Snow
1788339306 18.33° C 81% 1022 hPa 0 mm - - -
1788338706 17.78° C 84% 1021.9 hPa 0 mm - - -
1788338103 17.78° C 84% 1021.9 hPa 0 mm - - -
1788337501 17.22° C 87% 1021.9 hPa 0 mm - - -
1788336900 16.67° C 87% 1021.9 hPa 0 mm - - -
1788336297 16.11° C 89% 1021.8 hPa 0 mm - - -
1788335695 15.56° C 90% 1021.7 hPa 0 mm - - -
1788335092 15° C 90% 1021.8 hPa 0 mm - - -
1788334491 14.44° C 91% 1021.7 hPa 0 mm - - -
1788333889 14.44° C 91% 1021.6 hPa 0 mm - - -
1788333287 13.89° C 91% 1021.6 hPa 0 mm - - -
1788332684 13.89° C 91% 1021.5 hPa 0 mm - - -
1788332083 13.89° C 90% 1021.4 hPa 0 mm - - -
1788331481 13.33° C 90% 1021.5 hPa 0 mm - - -
1788330879 13.33° C 90% 1021.5 hPa 0 mm - - -
1788330277 13.33° C 90% 1021.6 hPa 0 mm - - -
1788329675 13.33° C 91% 1021.7 hPa 0 mm - - -
1788329073 12.78° C 91% 1021.5 hPa 0 mm - - -
1788328471 12.78° C 90% 1021.3 hPa 0 mm - - -
1788327869 12.78° C 90% 1021.6 hPa 0 mm - - -
1788327268 12.78° C 90% 1021.6 hPa 0 mm - - -
1788326664 12.78° C 90% 1021.6 hPa 0 mm - - -
1788326063 12.78° C 90% 1021.5 hPa 0 mm - - -
1788325461 12.78° C 90% 1021.3 hPa 0 mm - - -
1788324858 12.78° C 89% 1021.2 hPa 0 mm - - -

* Rain latest hour (hover to see other rain measurements)
** Current wind speed in m/s (hover to see current wind gust speed)